This is the latest recevied weather packets stored in our database for station/object KC1OEK-13. If no packets are shown the sender has not sent any weather packets the latest 10 day(s).
| Time | Temp. | Humidity | Pressure | Rain* | Wind** | Luminosity | Snow |
|---|---|---|---|---|---|---|---|
| 1788131486 | 22.22° C | 90% | 1019.9 hPa | 0 mm | - | 2 W/m² | - |
| 1788131182 | 22.22° C | 90% | 1019.8 hPa | 0 mm | - | 3 W/m² | - |
| 1788130882 | 22.22° C | 89% | 1019.7 hPa | 0 mm | - | 4 W/m² | - |
| 1788130577 | 22.78° C | 88% | 1019.9 hPa | 0 mm | - | 4 W/m² | - |
| 1788130272 | 22.78° C | 88% | 1020 hPa | 0 mm | - | 2 W/m² | - |
| 1788129970 | 22.78° C | 87% | 1020 hPa | 0 mm | - | 2 W/m² | - |
| 1788129667 | 22.78° C | 87% | 1020 hPa | 0 mm | - | 4 W/m² | - |
| 1788129363 | 22.78° C | 86% | 1019.9 hPa | 0 mm | - | 5 W/m² | - |
| 1788129057 | 22.78° C | 86% | 1020 hPa | 0 mm | - | 6 W/m² | - |
| 1788128751 | 22.78° C | 86% | 1020.1 hPa | 0 mm | - | 9 W/m² | - |
| 1788128442 | 22.78° C | 86% | 1019.9 hPa | 0 mm | - | 12 W/m² | - |
| 1788128138 | 22.78° C | 86% | 1020.1 hPa | 0 mm | - | 13 W/m² | - |
| 1788127834 | 22.78° C | 85% | 1020 hPa | 0 mm | - | 16 W/m² | - |
| 1788127533 | 23.33° C | 85% | 1019.9 hPa | 0 mm | - | 22 W/m² | - |
| 1788127232 | 23.33° C | 84% | 1019.9 hPa | 0 mm | - | 24 W/m² | - |
| 1788126926 | 23.33° C | 83% | 1019.8 hPa | 0 mm | - | 27 W/m² | - |
| 1788126621 | 23.89° C | 83% | 1020 hPa | 0 mm | - | 41 W/m² | - |
| 1788126316 | 23.89° C | 82% | 1019.8 hPa | 0 mm | - | 59 W/m² | - |
| 1788126010 | 23.89° C | 83% | 1019.8 hPa | 0 mm | - | 103 W/m² | - |
| 1788125705 | 23.33° C | 83% | 1020 hPa | 0 mm | - | 108 W/m² | - |
| 1788125401 | 23.33° C | 82% | 1019.8 hPa | 0 mm | - | 71 W/m² | - |
| 1788125096 | 23.89° C | 82% | 1019.6 hPa | 0 mm | - | 55 W/m² | - |
| 1788124795 | 23.89° C | 80% | 1019.9 hPa | 0 mm | - | 74 W/m² | - |
| 1788124490 | 23.89° C | 80% | 1020 hPa | 0 mm | - | 94 W/m² | - |
| 1788124186 | 23.89° C | 80% | 1019.8 hPa | 0 mm | - | 76 W/m² | - |
* Rain latest hour (hover to see other rain measurements)
** Current wind speed in m/s (hover to see current wind gust speed)